Погода в Агвали

Россия / Республика Дагестан     42°32′27″N   46°07′20″E
темп.,
°C
ветер,
м/с
пор.,
м/с
влажн.,
%
обл.,
%
осадки,
мм/ч
давл.,
гПа
погр.,
м
26 июня, вс
вс2600:00+8юз4495100 4.4 1013108
03:00+9ю339096 8.4 101242
06:00+11ю3385100 0.1 101084
09:00+12ююз2283100 0.6 1009164
12:00+11юз338685 5.6 1010303
15:00+16ссв126578 6.6 1007778
18:00+14ююз1278100 3.8 1008142
21:00+9ююз119041 10.5 101212
27 июня, пн
пн2700:00+8ююз32882 0.0 101222
03:00+8ююз22833 0.0 101217
06:00+12юз11765 0.0 101259
09:00+17ссв21630 0.1 1010601
12:00+18ссв43666 1.5 1010758
15:00+16с438128 4.3 1011665
18:00+13с229686 2.5 1013247
21:00+11сз0195100 4.2 101520
28 июня, вт
вт2800:00+11ююз2286100 0.3 101425
03:00+9зюз11855 0.3 101411
06:00+11з11809 0.0 101383
09:00+15с21757 0.4 1012459
12:00+17ссв436844 1.8 1011894
15:00+15с438771 4.6 1013541
18:00+12ссв229679 1.1 1015223
21:00+10с119750 1.3 1017100
29 июня, ср
ср2900:00+8ююв019647 0.0 101754
03:00+8ююв119450 0.0 101683
06:00+10всв119039 0.1 1017156
09:00+14ссв327955 0.6 1015641
12:00+16ссв317324 1.5 1014830
15:00+15ссв328228 6.5 1015584
18:00+12с229076 3.0 1016413
21:00+11сз1196100 4.1 101737
30 июня, чт
чт3000:00+10юз2294100 0.7 101728
03:00+9юз229194 1.9 101744
06:00+10ююз238811 0.0 1016126
09:00+15з027088 0.1 10141062
12:00+16с227024 1.8 1013718
15:00+15с328230 5.7 1014588
18:00+11с229696 2.1 1016273
21:00+10с2299100 2.7 1018143